NOAA 19 (33591 NORAD) Tracking and Keplerian Element Data

This shows tracking and keplerian element data for the satellite.

Feedback or suggestion? Click here.




ElementValue
Catalog33591
NameNOAA 19
Epoch Orbit65014
Epoch Day262.12550657
Epoch Year2021
RAAN285.1351
Inclination99.1801
Eccentricity0.0013226
Argument of Perigee226.9972
Mean Anonmoly133.0091
Mean Motion14.12495593
Decay Rate5.6E-07
L11 33591U 09005A 21262.12550657 .00000056 00000-0 55628-4 0 9990
L22 33591 99.1801 285.1351 0013226 226.9972 133.0091 14.12495593650143

Live tracking and technical data element details for NOAA 19 (NORAD 33591). NOAA 19 can be tracked NOW for your location showing map with azimuth and elevation plus other details from your city location.

Track the satellite on the map from your city or location and see movement details for azimuth, elevation, latitude, longitude, range, height, and movement on the map or in text.







IsCatalogInMostPopularTable: catalog: 33591, numindb: 1337
Update: records affected: 1



GetName: 33591 NOAA 19

Hit Count: updated at: Fri, 24 Sep 2021 18:36:19 GMT